Regional Weather Roundup
Issued by NWS

Home | Current Version | Previous Version | Text Only | Print | Product List | Glossary On
Versions: 1 2 3 4 5 6 7 8 9 10 11 12 13 14 15 16 17 18 19 20 21 22 23 24 25 26 27 28 29 30 31 32 33 34 35 36 37 38 39 40 41 42 43 44 45 46 47 48 49 50
000
ASUS45 KTFX 131419
RWRMT
MONTANA HOURLY WEATHER ROUNDUP
NATIONAL WEATHER SERVICE GREAT FALLS MT
819 AM MDT SUN JUL 13 2014

NOTE: "FAIR" INDICATES FEW OR NO CLOUDS BELOW 12000 FEET WITH NO
SIGNIFICANT WEATHER AND/OR OBSTRUCTIONS TO VISIBILITY.

* THESE STATIONS ARE NOT UNDER NWS QUALITY CONTROL. THEY DO NOT
   REPORT WEATHER SUCH AS PRECIPITATION OR FOG.

MTZ001>007-043-131500-
WEST OF THE DIVIDE
CITY           SKY/WX    TMP DP  RH WIND       PRES   REMARKS
KALISPELL      SUNNY     64  52  65 N8        30.22R
MISSOULA       SUNNY     63  46  54 CALM      30.26R
MULLAN PASS    SUNNY     68  37  32 E7        30.37R
* ESSEX        N/A       58  45  62 SE9G14     N/A
* LINCOLN      N/A       47  42  83 SW1        N/A
* LOOKOUT PASS N/A       56  45  67 S2         N/A
* POLSON       N/A       60  49  67 N/A        N/A
* RONAN APT    SUNNY     57  54  90 N/A        N/A
* SEELEY LAKE  N/A       48  44  86 NE1        N/A
* THOMP F APT  SUNNY     60  47  62 NE1G12     N/A
* YAAK HILL    N/A       55  49  80 E1         N/A
$$

MTZ008-052>055-131500-
SOUTHWEST MONTANA
CITY           SKY/WX    TMP DP  RH WIND       PRES   REMARKS
W YELLOWSTONE  SUNNY     54  48  80 CALM      30.47S
* THREE FORKS  SUNNY     61  39  44 N/A        N/A
* BOULDER HILL N/A       62  45  54 S9         N/A
* MONIDA PASS  N/A       54  48  80 NW5        N/A
* RAYNOLDS PAS N/A       52  24  34 E1         N/A
* WHITEHALL    N/A       59  56  90 N3         N/A
* WISE RIVER   N/A       51  48  90 W3         N/A
$$

MTZ009>010-012-014-046-048-049-054-131500-
EAST SLOPES AND CENTRAL MONTANA
CITY           SKY/WX    TMP DP  RH WIND       PRES   REMARKS
MALMSTROM AFB  SUNNY     64  45  50 W3        30.28S
* CONRAD       SUNNY     59  55  87 N/A        N/A
* DEARBORN     N/A       58  45  62 SW1        N/A
* MONARCH      N/A       56  36  47 S7         N/A
* PENDROY      N/A       70  51  51 N/A        N/A
* ROGERS PASS  N/A       61  39  44 N/A        N/A
* SAINT MARY   N/A       47  46  96 SE1        N/A
* SWEET GRASS  N/A       68  46  45 W4         N/A
* WHITE SULPH  N/A       62  45  54 NE4        N/A
$$

MTZ011-013-016-021-035-040-045-047-050-051-131500-
NORTH CENTRAL MONTANA
CITY           SKY/WX    TMP DP  RH WIND       PRES   REMARKS
* FORT BENTON  SUNNY     64  48  56 S3        30.26R
* CHESTER      N/A       63  50  63 N/A        N/A
* DENTON       N/A       66  47  51 N1         N/A
* GEYSER       N/A       69  45  42 W5         N/A
* JUDITH GAP   N/A       67  50  55 N/A        N/A
* LOMA         N/A       61  47  60 SW2        N/A
$$

MTZ017>020-022>027-061-062-131500-
NORTHEAST MONTANA
CITY           SKY/WX    TMP DP  RH WIND       PRES   REMARKS
GLENDIVE       PTCLDY    66  45  47 N7        30.21F
JORDAN         SUNNY     66  52  61 E8        30.22S
SIDNEY         PTSUNNY   63  45  52 NW9       30.20S
* BEAVER HILL  N/A       62  53  73 NW4        N/A
* CIRCLE       N/A       63  52  68 N/A        N/A
* LINDSAY DVD  N/A       61  43  52 NW9        N/A
* NAVAJO       N/A       58  45  62 NW8        N/A
$$

MTZ028>042-056>058-131500-
SOUTHCENTRAL AND SOUTHEAST MONTANA
CITY           SKY/WX    TMP DP  RH WIND       PRES   REMARKS
BILLINGS       SUNNY     64  46  52 SW8       30.26R
* LAUREL APT   SUNNY     61  45  56 SW5        N/A
* ROUNDUP APT  SUNNY     63  45  52 S7         N/A
* ALZADA       N/A       61  51  70 W3         N/A
* HYSHAM       N/A       69  45  42 N/A        N/A
* LAME DEER    N/A       72  45  38 S3         N/A
* REED POINT   N/A       64  49  58 W6         N/A
* ROSCOE HILL  N/A       68  43  40 N/A        N/A
$$

REGIONAL REPORTS...DAKOTAS
CITY           SKY/WX    TMP DP  RH WIND       PRES   REMARKS
WILLISTON      PTCLDY    64  45  50 NW8       30.17S
DICKINSON      SUNNY     61  50  67 NW6       30.16R
CROSBY         SUNNY     55  48  77 NW13G20   30.15S
TIOGA          SUNNY     59  48  67 NW14      30.18S
WATFORD CITY   SUNNY     59  48  67 NW7       30.15S
BISMARCK       SUNNY     64  48  56 NW7       30.11S
GRAND FORKS    SUNNY     63  52  68 NW9       29.95S
FARGO          SUNNY     64  52  65 N/A       29.98R
BUFFALO SD     SUNNY     66  54  65 W9        30.14R
RAPID CITY     SUNNY     68  55  63 NW6       30.22R
$$

REGIONAL REPORTS...WYOMING/IDAHO/WASHINGTON
CITY           SKY/WX    TMP DP  RH WIND       PRES   REMARKS
GILLETTE       PTCLDY    68  48  49 CALM      30.28R
CODY           SUNNY    N/A N/A N/A SW6       30.32F
YELLOWSTONE LA SUNNY     46  46 100 CALM      30.56R
MULLAN PASS    SUNNY     68  37  32 E7        30.37S
SAND POINT     SUNNY     61  52  72 CALM      30.17R
SPOKANE        SUNNY     70  52  53 NE9       30.15R
$$

REGIONAL REPORTS...ALBERTA
CITY           SKY/WX    TMP DP  RH WIND       PRES   REMARKS
CALGARY        N/A       63  52  68 W7        30.26S
LETHBRIDGE     PTSUNNY   61  55  81 SW5       30.25R
MEDICINE HAT   N/A       63  55  75 VRB2      30.24R
EDMONTON       N/A       64  57  78 SE9       30.23R
WATERTON GATE  N/A       61  54  78 CALM       N/A
CARDSTON       N/A       59  57  93 SE1        N/A
MILK RIVER     N/A       61  52  72 W6         N/A
$$

REGIONAL REPORTS...SASKATCHEWAN
CITY           SKY/WX    TMP DP  RH WIND       PRES   REMARKS
SWIFT CURRENT  PTCLDY    63  54  73 N7        30.22R
REGINA         N/A       57  46  67 NW10      30.17S
VAL MARIE      N/A       59  54  84 SW1        N/A
ASSINIBOIA     N/A       57  48  72 NW8        N/A
CORONACH       N/A       57  50  78 NW5        N/A

$$



USA.gov is the U.S. government's official web portal to all federal, state and local government web resources and services.